Vorticity
8 9 9 7 5 5 5 7 7 8 8 7 5 4 7 10 11 14 17 17 16 16 14 11 9 9 11 14 15 16 15 15 16 18 18 19 20 21 18 12 10 9 11 18 25 22 15 10 6 6 7 7 6 6 7 10 11 8 6 9 12 10 7 8 7 10 14 9 5 5 5 5 7 7 8 10 12 14 15 13 9 7 8 9 9
8 9 9 7 5 5 5 6 6 7 8 7 6 4 7 11 12 15 17 17 17 18 15 10 7 9 13 15 15 12 12 13 15 17 16 16 20 24 25 21 15 12 12 15 21 24 20 14 8 6 9 11 10 9 9 12 13 11 7 7 13 12 7 5 6 12 15 10 6 4 1 1 4 6 6 7 10 13 15 15 13 9 8 10 12
8 9 8 7 5 4 5 5 6 7 7 8 7 5 7 11 14 16 17 17 18 19 15 8 6 8 13 18 17 12 11 16 18 20 19 15 17 22 23 22 20 17 16 18 22 24 21 15 12 13 14 16 17 14 12 14 13 12 11 9 12 14 9 4 7 14 15 10 7 4 -1 -2 -1 3 6 6 9 13 15 16 16 12 10 10 12
8 8 8 7 5 4 4 5 6 7 7 8 7 5 8 12 15 17 17 16 16 17 14 7 4 4 9 16 19 13 10 15 18 21 26 23 18 20 21 19 21 23 23 24 23 22 24 18 10 10 11 15 19 15 12 14 13 10 13 12 11 13 12 8 9 13 13 10 7 5 2 -0 -2 2 7 6 8 13 16 17 17 15 11 8 7
8 8 8 7 5 4 4 4 6 7 7 7 7 5 8 13 16 18 18 15 13 14 12 8 3 1 3 9 18 16 9 14 18 13 15 21 20 20 19 14 12 15 20 25 23 20 23 21 13 11 10 10 17 16 11 12 13 11 13 13 11 13 14 10 9 11 13 12 10 7 5 3 0 4 8 7 8 13 14 14 16 17 15 11 9
8 8 7 6 5 4 4 4 6 7 7 6 6 6 9 13 16 18 19 15 11 10 9 8 6 3 1 3 12 17 11 11 18 13 6 10 16 21 23 18 14 14 19 26 26 23 23 20 15 14 10 6 14 18 13 11 12 11 11 10 10 12 13 11 8 10 13 13 12 11 8 4 3 5 7 6 7 9 12 12 13 14 16 16 16
7 8 7 6 5 4 4 4 6 7 7 7 7 8 9 12 15 18 20 16 11 10 9 7 6 5 4 4 7 15 15 10 15 20 15 7 7 13 19 19 17 19 26 29 27 24 22 19 15 12 8 8 14 17 12 9 10 11 11 9 8 10 12 10 7 9 13 12 12 15 13 7 5 5 5 6 6 5 8 11 12 11 13 14 13
7 7 7 6 5 4 4 5 6 7 8 8 9 9 9 11 15 19 20 15 11 12 13 9 8 8 7 7 7 11 16 14 12 18 18 10 5 8 17 22 14 9 18 29 27 21 18 19 17 12 12 14 16 16 12 9 8 10 12 12 10 10 12 9 6 8 11 11 11 15 16 11 7 6 3 5 7 5 3 7 11 10 10 10 10
6 8 7 6 4 5 5 6 7 8 9 10 10 11 9 10 15 20 21 16 9 10 14 13 10 10 9 8 8 10 14 14 12 16 18 12 7 7 14 23 21 14 17 25 27 21 15 17 19 17 17 16 14 15 15 12 9 9 12 15 12 11 13 11 6 6 10 11 11 13 14 12 10 8 4 2 5 5 2 4 8 11 10 8 7
7 8 7 5 4 5 6 7 9 10 9 10 11 11 9 10 15 20 20 16 9 8 13 13 10 11 11 9 9 10 12 12 11 14 18 16 12 10 12 16 17 18 18 21 26 25 16 14 17 19 19 18 15 16 16 14 13 11 12 15 14 12 14 12 8 7 10 12 11 10 11 11 11 10 6 2 1 3 3 3 5 10 12 9 5
7 8 7 6 5 6 7 8 10 11 10 11 12 11 9 11 16 19 18 14 10 9 13 13 9 9 11 10 8 9 11 12 11 12 17 20 15 9 13 19 16 15 18 18 23 29 21 13 16 18 16 15 15 16 16 15 16 15 10 9 12 14 14 12 9 9 11 12 10 9 10 11 12 12 10 6 1 1 4 4 4 7 11 11 8
9 9 8 7 6 6 8 10 11 11 9 12 13 11 10 13 16 17 15 13 11 12 14 13 9 7 10 10 8 8 10 11 11 12 16 23 19 5 5 19 21 17 20 18 20 31 30 17 15 17 15 13 12 14 17 16 14 14 11 7 11 14 11 10 9 9 13 14 10 9 11 11 12 12 12 10 4 -0 0 2 3 5 7 11 12
10 9 8 7 7 7 9 10 10 10 10 13 15 13 12 14 15 14 13 14 14 14 15 13 9 6 9 10 8 8 10 11 11 12 15 23 27 13 5 17 24 22 24 24 22 29 31 18 9 10 13 15 13 11 15 17 13 12 13 14 15 15 10 9 9 11 14 14 12 13 15 13 13 12 12 12 9 3 -0 -0 2 4 6 8 11
9 9 8 7 6 7 9 10 9 10 13 15 14 13 13 13 14 12 13 16 18 17 16 14 10 7 9 11 9 8 10 11 9 10 12 20 28 21 9 12 22 24 24 26 24 24 25 17 6 5 11 15 16 14 13 16 16 13 14 16 17 16 12 10 11 12 11 11 14 19 20 16 14 13 13 14 12 6 1 -2 -1 3 5 7 9
9 8 7 6 6 8 10 11 10 12 15 15 14 14 13 12 12 13 14 17 18 18 17 14 11 10 10 10 9 8 10 10 9 7 9 16 24 23 11 7 18 25 21 19 22 21 22 20 14 13 15 13 13 16 14 13 14 12 12 12 13 16 16 15 14 11 7 6 12 20 22 16 13 13 14 16 14 9 3 -2 -1 4 6 7 10
8 6 6 6 7 10 11 12 13 14 15 16 16 14 13 11 12 15 17 17 18 18 17 14 12 11 10 9 9 9 9 8 9 8 10 15 20 21 15 7 16 31 26 18 21 19 13 14 15 18 18 14 13 16 17 14 12 12 12 11 10 13 15 15 15 11 7 5 9 17 18 11 9 13 16 18 15 10 5 0 -2 2 4 4 6
7 6 7 8 9 11 14 14 13 14 15 17 17 13 9 8 12 18 20 17 17 18 16 15 13 10 9 10 10 9 8 7 8 8 10 15 17 20 20 10 13 34 33 15 17 23 15 8 11 14 14 14 14 16 19 18 13 13 15 13 12 14 12 10 10 9 7 7 10 17 17 9 6 12 17 19 18 12 8 4 -0 0 1 1 1
7 7 8 10 11 12 14 13 13 15 18 18 14 9 7 8 13 19 21 17 16 17 14 12 10 7 8 11 11 10 8 7 8 7 8 13 15 20 25 14 8 29 37 17 8 19 20 12 8 9 12 15 18 20 22 22 19 18 18 14 13 16 15 13 13 12 11 13 15 19 18 10 6 12 17 20 20 15 9 3 2 2 -0 -2 1
8 9 10 11 12 13 14 14 14 17 18 16 11 9 10 11 14 19 20 16 14 13 12 11 9 8 8 10 11 11 9 6 6 5 5 10 14 20 28 19 5 16 34 30 15 15 25 24 13 8 11 17 24 26 21 17 17 16 15 15 15 17 18 20 22 20 17 17 19 23 22 14 9 13 19 20 19 16 12 5 4 5 2 -1 2
9 10 12 13 14 15 15 13 13 15 18 15 11 11 13 13 13 17 18 15 13 11 10 10 11 10 10 12 12 11 10 7 5 4 3 6 11 19 25 22 9 6 21 33 24 13 21 35 34 25 16 13 18 22 15 13 18 17 12 12 15 18 21 22 22 22 20 16 17 22 22 15 10 11 15 19 20 19 14 7 4 3 1 -1 2
11 12 13 14 15 14 12 9 10 15 17 13 10 13 15 11 12 16 17 14 12 11 10 12 13 12 12 13 13 12 11 10 6 4 3 3 8 16 22 21 13 8 13 26 30 16 7 14 26 32 28 19 17 20 14 12 17 15 9 11 14 16 20 18 12 14 17 15 17 23 22 13 9 9 12 17 21 20 16 10 8 8 3 -1 2
11 11 13 12 11 9 9 9 12 14 15 12 12 16 15 11 11 15 16 14 11 10 10 11 11 11 12 14 14 12 12 13 11 6 4 3 4 11 19 20 14 9 9 18 30 28 11 -0 3 16 25 22 17 21 21 12 6 8 15 23 23 17 18 20 18 18 19 15 17 23 22 15 9 7 12 17 18 19 21 16 10 11 10 4 4
10 11 12 9 8 9 10 12 14 17 17 14 14 16 17 16 16 16 15 14 12 10 10 9 7 7 8 11 13 13 12 13 14 11 7 4 4 6 13 19 17 12 8 10 21 29 25 14 6 6 13 17 15 21 26 18 6 6 11 14 15 14 14 15 17 23 25 21 20 21 18 15 11 8 14 21 18 16 20 14 4 5 8 7 5
12 13 11 8 8 11 14 16 18 21 20 15 12 15 18 19 18 18 16 13 12 11 9 8 7 7 6 8 10 13 13 13 14 15 11 8 6 4 7 14 17 15 11 9 13 22 27 26 18 8 7 14 18 22 26 23 17 13 7 2 4 14 19 10 3 12 23 22 20 20 15 12 12 11 13 17 13 11 14 10 2 2 6 7 9
15 12 10 10 12 14 15 17 19 21 19 13 10 16 21 20 18 18 16 12 11 12 10 7 8 8 7 8 9 11 13 13 13 15 15 12 10 7 6 9 13 16 16 11 10 15 20 23 24 18 12 13 19 24 27 28 28 26 22 15 7 11 21 16 -0 2 16 19 17 18 16 12 13 14 15 17 13 7 6 6 5 9 16 17 15
13 10 10 11 12 14 16 18 19 19 16 9 5 10 20 23 19 15 14 12 11 12 10 8 9 9 9 10 10 10 12 13 12 13 14 13 12 11 9 9 10 14 17 15 11 13 16 18 20 21 16 13 18 26 27 25 27 30 32 31 20 9 12 13 3 3 14 18 15 16 15 12 12 12 13 17 18 10 4 5 7 9 13 14 12
10 9 10 11 13 16 17 18 17 15 12 7 3 4 13 20 17 12 12 12 11 11 10 9 8 8 8 9 10 10 9 10 10 10 10 11 12 12 11 11 11 11 14 16 14 13 14 16 17 17 15 11 14 23 24 19 19 23 25 30 30 19 10 8 6 8 15 16 10 9 12 14 15 16 16 19 20 16 11 13 13 11 10 9 7
9 10 11 13 16 16 16 15 12 10 10 11 10 9 12 16 15 13 12 11 10 11 11 10 8 7 6 7 9 10 8 7 7 7 7 8 8 10 11 11 11 11 11 14 16 14 12 14 17 16 15 14 15 20 22 19 16 14 12 17 26 27 21 17 12 9 11 11 1 -5 3 12 12 11 14 15 14 14 13 11 10 12 17 17 11
10 10 12 14 13 13 16 16 12 10 12 13 12 11 13 15 15 13 12 12 12 12 12 11 12 11 8 6 7 9 8 8 6 5 6 6 6 7 9 9 10 11 10 10 14 16 14 15 17 15 14 15 18 19 21 24 21 12 5 7 15 19 22 24 22 15 14 16 8 -7 -9 3 9 6 4 6 9 12 11 6 4 6 11 14 15
10 11 13 12 10 13 18 19 14 12 13 12 11 10 14 18 17 12 10 11 11 12 12 12 13 14 12 9 8 8 8 9 7 5 5 6 6 5 6 8 9 9 10 10 11 14 15 14 16 16 14 14 18 20 21 25 28 21 14 14 14 12 14 18 20 17 15 22 33 29 10 4 11 16 14 13 14 13 12 11 10 8 5 7 12
12 12 13 12 11 14 19 18 14 12 11 11 11 12 15 18 15 10 9 11 11 9 9 9 10 13 13 11 10 10 9 9 8 8 8 8 8 5 4 6 8 7 8 10 11 12 14 14 13 15 14 14 17 20 20 22 27 26 24 27 24 16 11 11 14 22 25 24 35 47 37 18 11 12 11 12 13 12 12 12 10 8 7 9 13
13 13 12 11 11 13 16 17 15 14 13 11 11 14 17 19 14 8 9 13 13 11 9 7 9 12 13 11 11 12 12 11 10 9 9 9 9 8 6 6 7 7 7 10 10 10 12 13 12 12 13 13 15 17 18 21 25 23 21 27 30 22 13 8 8 17 21 7 -1 14 31 32 24 11 1 2 9 13 11 7 6 9 8 3 3
13 12 9 9 11 13 14 15 15 16 15 11 11 13 13 12 10 8 10 12 9 8 10 10 10 11 12 12 11 11 12 11 8 6 8 8 8 8 8 8 8 8 8 8 9 9 9 10 12 11 11 12 13 14 14 17 23 23 17 20 27 25 19 18 16 15 11 -3 -14 -7 8 14 14 10 6 5 8 8 6 4 6 11 11 6 6
13 10 8 10 13 14 14 12 14 16 14 11 13 15 11 7 4 3 5 6 3 3 8 11 11 11 10 11 12 11 11 9 6 5 8 10 9 8 9 9 9 10 10 9 8 7 7 8 10 10 10 10 10 11 12 13 17 21 18 17 22 22 18 18 21 23 20 13 6 6 7 3 2 6 10 11 8 3 1 2 3 5 4 1 0
11 10 11 12 14 15 13 9 11 16 12 7 10 12 8 5 4 4 5 8 9 10 12 12 11 11 10 10 11 12 11 9 7 8 11 13 13 12 12 13 11 10 11 11 10 8 7 6 6 7 8 9 8 8 10 10 11 14 16 17 20 23 21 17 16 18 23 22 17 17 18 16 13 12 10 11 12 11 10 9 8 11 15 14 15
11 11 12 13 14 15 11 9 18 26 19 8 6 7 6 6 8 7 8 9 10 14 16 14 13 13 12 11 10 10 11 10 8 9 11 13 14 13 13 14 11 6 7 9 10 10 9 7 6 5 4 5 6 5 6 8 8 9 11 13 15 18 21 22 19 17 20 22 19 18 20 20 20 19 16 13 12 12 13 15 15 17 18 18 21
11 10 10 11 15 15 11 15 30 36 22 8 7 9 12 16 15 8 4 2 2 7 10 11 11 12 12 11 10 9 10 10 10 10 11 12 13 13 13 12 9 6 7 9 10 11 11 10 9 9 6 5 6 5 4 5 5 6 7 8 9 11 14 17 19 19 22 22 19 17 20 21 20 20 22 21 19 15 12 13 15 19 20 15 8
11 10 11 11 14 16 14 19 35 39 24 11 10 11 13 18 16 9 4 1 -0 3 6 6 7 8 9 11 11 9 9 11 12 12 12 11 11 13 13 13 12 11 10 10 9 10 12 12 11 11 10 9 8 7 7 6 5 5 6 5 6 7 8 9 11 13 16 19 18 16 18 22 23 21 21 24 28 27 23 19 15 15 21 24 19
11 13 14 12 12 17 17 16 23 27 18 8 7 8 11 15 14 10 8 4 2 6 10 8 6 6 8 11 12 11 10 11 11 12 12 11 11 12 13 13 13 11 9 8 7 7 7 8 9 9 9 9 9 9 9 8 7 6 6 5 5 6 6 6 8 7 8 11 13 12 13 18 21 20 17 18 21 23 24 25 23 17 14 17 19
15 18 19 15 13 17 18 13 14 20 21 16 13 13 14 15 12 8 5 4 6 9 11 8 7 8 9 10 12 13 12 11 10 11 12 11 10 10 11 10 10 8 6 5 4 4 4 5 6 6 6 7 8 8 9 9 9 8 7 6 5 5 5 5 6 7 7 7 7 8 8 11 14 15 13 15 18 18 18 20 23 22 20 18 18
20 22 20 14 11 12 15 15 15 18 19 16 13 11 12 13 11 6 6 10 13 14 13 12 12 12 11 11 12 12 12 12 11 11 12 12 11 10 10 9 8 7 6 4 2 2 4 5 5 6 6 6 7 8 8 8 8 8 8 8 7 6 6 5 4 5 6 6 7 7 7 7 9 10 9 10 13 15 16 18 19 19 18 19 20
21 21 16 12 11 11 13 14 15 17 17 16 15 14 12 10 7 7 10 13 14 13 13 14 14 14 13 13 14 14 14 15 14 13 12 12 11 10 9 9 9 7 5 4 3 2 3 5 6 7 8 7 7 8 8 8 8 7 7 8 8 7 7 7 6 6 5 5 5 6 6 7 8 8 8 9 9 9 11 14 17 17 15 14 15
19 20 17 12 11 15 17 15 13 15 17 17 15 11 7 5 5 8 10 11 10 11 12 13 13 14 14 14 14 14 14 13 13 13 12 10 9 9 9 9 8 8 6 6 5 5 6 7 7 7 8 8 8 8 8 8 9 9 9 8 8 8 7 7 7 7 7 6 5 4 4 4 5 5 5 6 7 8 8 8 10 13 15 14 14
19 20 18 14 15 24 29 24 15 11 9 6 4 3 4 7 10 11 10 8 8 9 9 9 10 11 10 10 10 10 10 10 9 9 10 9 8 8 8 8 8 8 8 8 9 9 9 9 8 7 7 7 7 8 8 8 7 8 9 9 9 9 9 9 8 7 8 8 8 7 7 5 4 4 3 3 3 5 6 6 7 8 9 11 13
22 21 19 16 16 19 18 11 5 5 7 7 8 8 9 10 10 8 7 7 8 8 9 9 9 9 8 8 8 7 7 9 9 8 9 10 9 9 9 9 9 9 8 8 9 8 8 9 9 8 7 7 6 6 7 8 8 8 8 8 9 9 9 10 10 9 8 8 8 8 9 9 8 7 6 6 5 4 4 5 5 5 5 7 8
23 22 20 15 11 9 6 4 5 9 11 10 11 11 11 10 10 9 9 10 11 11 11 11 10 10 10 10 10 10 9 9 9 9 8 8 8 8 8 8 8 8 8 7 7 7 7 7 8 8 8 8 7 6 6 6 7 7 7 7 7 8 8 8 9 10 10 9 8 7 7 7 8 9 9 9 9 9 8 7 6 5 6 7 7
19 18 15 13 10 10 10 11 13 16 16 14 14 14 12 11 10 10 10 11 11 11 12 11 11 11 11 10 10 10 9 9 9 8 8 7 7 6 6 6 6 6 7 7 7 7 7 7 7 7 8 8 8 7 7 6 6 6 7 7 7 7 7 8 8 8 9 9 9 8 7 6 6 6 7 8 9 10 10 10 9 9 8 7 6
15 14 13 13 12 12 12 12 13 15 15 14 13 12 10 10 10 11 11 12 11 10 10 10 9 9 9 9 8 8 8 7 7 7 8 8 9 8 8 8 7 7 6 7 7 8 8 9 9 10 10 11 12 13 12 11 10 9 8 8 9 9 9 9 9 8 8 9 9 8 8 8 7 6 6 6 6 7 8 9 10 10 10 10 9
10 10 10 11 11 12 12 12 12 12 11 10 9 9 9 9 10 10 9 10 10 9 9 10 9 8 8 8 7 7 6 7 7 7 7 8 9 9 10 10 11 11 12 13 14 15 16 17 18 19 19 19 19 20 20 20 20 19 17 16 15 14 13 13 13 13 12 11 11 10 9 9 9 9 8 7 6 5 5 6 8 10 11 11 10
9 9 9 9 10 10 10 10 10 10 10 9 9 9 9 9 9 9 9 9 9 9 8 8 7 7 7 7 8 9 9 10 11 11 11 11 11 12 13 15 16 18 19 19 19 20 20 19 20 20 20 20 21 21 21 21 22 22 23 22 21 20 19 17 17 17 16 16 16 16 14 13 13 12 11 10 9 7 6 5 5 8 11 13 13
10 10 9 9 10 10 10 10 10 10 10 9 9 9 9 9 9 9 9 8 8 8 8 8 8 9 9 10 10 11 11 12 12 14 15 17 18 19 20 20 20 19 18 17 16 16 15 15 15 15 15 15 16 16 17 18 18 19 21 22 22 23 23 21 20 19 19 18 18 18 18 17 17 16 16 15 13 12 11 8 5 4 5 8 11
Height
5860 5857 5854 5852 5849 5847 5844 5841 5838 5835 5832 5828 5825 5821 5818 5814 5810 5807 5803 5800 5798 5795 5793 5791 5788 5786 5784 5781 5779 5776 5774 5772 5770 5768 5767 5765 5764 5763 5763 5762 5762 5762 5763 5764 5765 5766 5769 5771 5773 5775 5776 5778 5780 5782 5784 5786 5787 5789 5791 5794 5796 5799 5802 5804 5808 5813 5814 5814 5815 5817 5820 5821 5824 5828 5830 5831 5832 5834 5837 5839 5841 5843 5846 5849 5851
5855 5853 5850 5848 5845 5842 5839 5837 5834 5830 5827 5824 5820 5817 5813 5810 5806 5802 5799 5796 5793 5791 5788 5786 5784 5782 5779 5777 5775 5772 5770 5767 5765 5762 5761 5759 5758 5757 5756 5756 5755 5755 5756 5757 5758 5759 5761 5764 5766 5768 5770 5772 5774 5776 5777 5779 5781 5783 5785 5788 5791 5793 5796 5799 5802 5807 5809 5810 5810 5812 5814 5817 5821 5824 5825 5827 5828 5830 5832 5834 5836 5838 5841 5844 5846
5851 5848 5846 5843 5840 5838 5835 5832 5829 5825 5822 5819 5816 5812 5809 5805 5802 5798 5795 5792 5789 5787 5784 5782 5780 5778 5775 5773 5771 5768 5765 5763 5760 5757 5755 5754 5752 5751 5750 5750 5749 5749 5749 5750 5751 5752 5754 5757 5759 5761 5763 5765 5768 5770 5771 5772 5774 5777 5780 5783 5785 5788 5790 5793 5796 5801 5804 5805 5805 5806 5809 5813 5816 5819 5820 5822 5824 5825 5827 5829 5831 5834 5837 5840 5842
5847 5844 5842 5839 5836 5833 5830 5827 5824 5821 5818 5815 5811 5808 5804 5801 5797 5794 5791 5788 5785 5783 5780 5778 5776 5773 5771 5769 5766 5764 5761 5758 5755 5752 5750 5749 5747 5746 5745 5744 5743 5743 5743 5744 5744 5746 5747 5750 5753 5755 5756 5758 5761 5763 5765 5766 5768 5771 5774 5777 5779 5782 5784 5787 5790 5794 5798 5800 5801 5802 5804 5807 5811 5813 5815 5818 5819 5821 5823 5825 5827 5830 5833 5835 5837
5843 5840 5837 5834 5831 5828 5825 5822 5819 5816 5813 5810 5807 5803 5800 5796 5793 5790 5787 5784 5781 5778 5776 5774 5772 5769 5767 5764 5762 5759 5756 5753 5750 5748 5746 5744 5742 5741 5740 5739 5738 5738 5738 5738 5739 5740 5741 5743 5746 5748 5750 5752 5754 5757 5759 5760 5762 5765 5768 5770 5773 5776 5778 5781 5785 5788 5792 5795 5797 5798 5799 5801 5805 5808 5810 5813 5815 5817 5819 5821 5823 5826 5829 5831 5833
5839 5836 5834 5830 5827 5824 5821 5818 5815 5812 5809 5805 5802 5799 5796 5792 5789 5786 5783 5780 5777 5774 5772 5770 5767 5765 5762 5760 5758 5754 5751 5749 5746 5744 5742 5740 5738 5736 5735 5734 5733 5733 5733 5733 5733 5734 5735 5737 5739 5741 5744 5746 5748 5750 5752 5754 5757 5760 5762 5765 5767 5770 5772 5775 5779 5782 5786 5789 5792 5793 5793 5796 5800 5804 5806 5808 5811 5813 5815 5817 5819 5822 5825 5827 5829
5835 5832 5829 5826 5823 5820 5817 5814 5811 5807 5804 5801 5797 5794 5791 5788 5785 5782 5779 5776 5773 5771 5768 5766 5763 5760 5758 5756 5753 5750 5747 5745 5742 5739 5737 5736 5734 5732 5731 5730 5729 5728 5727 5727 5728 5728 5729 5731 5733 5736 5738 5740 5741 5744 5746 5748 5751 5754 5757 5760 5761 5763 5766 5769 5773 5776 5780 5783 5786 5788 5789 5791 5795 5799 5801 5803 5806 5809 5811 5814 5816 5818 5821 5822 5824
5830 5828 5825 5822 5819 5816 5813 5809 5806 5803 5800 5797 5793 5790 5786 5783 5780 5778 5775 5771 5769 5766 5764 5762 5759 5756 5753 5751 5749 5746 5743 5741 5738 5735 5733 5731 5729 5728 5726 5725 5724 5723 5722 5722 5722 5723 5724 5726 5728 5730 5732 5734 5736 5738 5740 5742 5745 5748 5751 5753 5755 5757 5760 5764 5767 5770 5774 5777 5780 5783 5784 5786 5789 5793 5795 5798 5802 5806 5808 5810 5812 5814 5816 5817 5818
5825 5823 5821 5818 5815 5812 5809 5806 5802 5799 5796 5793 5789 5785 5782 5779 5776 5773 5770 5767 5764 5762 5760 5758 5755 5752 5749 5747 5745 5742 5739 5737 5734 5731 5729 5727 5725 5723 5722 5720 5719 5718 5718 5718 5717 5718 5719 5721 5723 5725 5727 5729 5731 5732 5734 5737 5739 5742 5744 5746 5749 5752 5754 5758 5761 5764 5768 5772 5774 5777 5779 5781 5783 5787 5790 5794 5799 5802 5804 5805 5807 5809 5810 5811 5813
5821 5818 5816 5813 5811 5808 5805 5802 5798 5795 5792 5789 5785 5781 5778 5774 5771 5769 5766 5763 5760 5757 5755 5753 5750 5748 5745 5743 5741 5738 5735 5732 5730 5727 5725 5723 5721 5720 5718 5716 5715 5714 5713 5713 5713 5713 5714 5716 5718 5720 5721 5723 5725 5727 5729 5731 5733 5736 5738 5740 5743 5746 5748 5752 5755 5759 5762 5766 5768 5771 5774 5776 5778 5782 5785 5790 5794 5796 5798 5800 5803 5804 5804 5806 5809
5816 5814 5811 5809 5806 5804 5801 5797 5794 5791 5788 5784 5780 5777 5773 5770 5767 5764 5761 5758 5755 5753 5751 5749 5746 5744 5741 5739 5736 5734 5732 5729 5726 5724 5721 5719 5717 5716 5714 5712 5711 5709 5708 5708 5709 5709 5709 5711 5713 5714 5716 5718 5720 5722 5724 5725 5727 5730 5732 5734 5737 5740 5742 5746 5750 5753 5757 5760 5763 5765 5768 5771 5774 5776 5779 5783 5787 5790 5793 5795 5797 5799 5800 5802 5805
5812 5810 5807 5805 5802 5799 5796 5793 5789 5786 5783 5780 5776 5772 5769 5766 5763 5760 5757 5754 5751 5749 5747 5744 5742 5739 5737 5735 5733 5731 5728 5726 5723 5720 5718 5715 5714 5713 5710 5708 5707 5705 5704 5704 5704 5704 5704 5706 5708 5709 5710 5712 5713 5715 5718 5720 5722 5724 5726 5729 5731 5734 5737 5740 5744 5748 5751 5754 5757 5760 5763 5766 5769 5771 5774 5777 5781 5785 5788 5790 5791 5793 5795 5797 5800
5807 5805 5803 5800 5798 5795 5791 5788 5784 5781 5778 5775 5771 5768 5765 5761 5759 5756 5753 5750 5747 5744 5742 5740 5738 5736 5734 5731 5729 5727 5725 5722 5720 5717 5715 5712 5710 5709 5707 5705 5703 5701 5701 5700 5700 5700 5700 5702 5703 5703 5705 5706 5707 5710 5712 5714 5717 5719 5721 5723 5726 5729 5732 5735 5739 5742 5745 5749 5752 5755 5758 5761 5764 5766 5768 5771 5774 5778 5781 5784 5787 5789 5791 5793 5796
5803 5801 5798 5796 5793 5789 5786 5782 5779 5776 5773 5770 5767 5763 5760 5757 5754 5751 5748 5745 5743 5740 5738 5736 5734 5732 5730 5728 5726 5724 5722 5719 5717 5714 5712 5709 5706 5705 5703 5702 5699 5698 5697 5697 5696 5696 5697 5697 5698 5699 5700 5701 5703 5705 5707 5710 5712 5714 5716 5718 5721 5724 5727 5730 5733 5737 5740 5743 5746 5750 5754 5756 5759 5762 5763 5764 5767 5771 5775 5779 5782 5783 5786 5788 5791
5798 5796 5793 5791 5788 5784 5780 5777 5774 5771 5768 5765 5762 5758 5756 5753 5750 5746 5744 5741 5739 5736 5734 5732 5730 5728 5726 5725 5723 5721 5718 5716 5714 5711 5709 5706 5703 5701 5700 5698 5696 5694 5694 5693 5693 5693 5693 5693 5695 5697 5698 5698 5699 5701 5703 5705 5707 5709 5711 5714 5717 5719 5722 5725 5729 5732 5735 5737 5741 5746 5749 5751 5754 5756 5757 5757 5760 5765 5770 5773 5775 5778 5781 5785 5788
5793 5791 5788 5785 5782 5779 5775 5772 5769 5767 5764 5760 5757 5754 5751 5749 5746 5743 5740 5737 5735 5732 5730 5728 5727 5725 5723 5722 5720 5718 5715 5713 5711 5709 5706 5703 5700 5698 5697 5695 5693 5691 5690 5689 5689 5690 5690 5690 5692 5693 5694 5695 5696 5698 5699 5701 5703 5704 5706 5709 5712 5714 5717 5721 5724 5726 5729 5732 5736 5739 5742 5744 5747 5749 5749 5751 5754 5758 5762 5766 5769 5773 5779 5783 5785
5787 5785 5782 5780 5777 5774 5771 5768 5765 5762 5759 5755 5753 5750 5747 5745 5742 5739 5736 5733 5731 5729 5726 5724 5723 5722 5720 5719 5717 5715 5713 5711 5709 5707 5704 5701 5698 5695 5694 5693 5691 5689 5687 5686 5685 5685 5686 5686 5688 5689 5690 5691 5692 5693 5694 5696 5699 5700 5702 5705 5707 5709 5713 5716 5718 5720 5723 5726 5730 5733 5735 5737 5739 5741 5742 5744 5748 5751 5754 5759 5764 5770 5775 5778 5781
5782 5780 5777 5775 5772 5769 5766 5763 5760 5757 5754 5751 5748 5746 5744 5741 5738 5735 5733 5730 5728 5726 5724 5722 5720 5719 5717 5716 5715 5713 5710 5708 5706 5704 5702 5699 5696 5693 5692 5690 5689 5687 5685 5683 5682 5682 5682 5682 5683 5685 5686 5687 5688 5688 5690 5692 5694 5695 5697 5699 5701 5704 5708 5711 5712 5715 5717 5720 5724 5726 5728 5731 5733 5735 5737 5739 5742 5745 5749 5755 5760 5765 5769 5773 5776
5778 5775 5773 5770 5768 5765 5762 5759 5756 5753 5750 5747 5744 5742 5740 5737 5735 5732 5729 5727 5725 5723 5721 5719 5717 5716 5715 5713 5712 5710 5708 5706 5704 5702 5699 5697 5695 5692 5689 5688 5686 5684 5682 5680 5679 5679 5679 5679 5679 5680 5681 5682 5683 5684 5685 5687 5689 5690 5692 5693 5696 5700 5703 5704 5706 5709 5712 5714 5717 5720 5723 5726 5729 5732 5734 5736 5737 5741 5745 5751 5755 5759 5764 5768 5770
5773 5771 5768 5765 5763 5760 5757 5754 5751 5748 5746 5743 5740 5738 5736 5733 5731 5728 5726 5724 5722 5720 5718 5717 5715 5713 5712 5711 5709 5708 5705 5703 5701 5699 5697 5695 5693 5690 5687 5685 5684 5682 5680 5678 5676 5676 5676 5676 5676 5677 5678 5678 5679 5680 5682 5683 5684 5686 5687 5689 5692 5695 5697 5699 5701 5704 5705 5708 5711 5714 5717 5721 5724 5727 5730 5732 5734 5737 5742 5747 5751 5755 5759 5762 5764
5769 5766 5763 5760 5757 5755 5752 5749 5746 5743 5741 5739 5736 5734 5732 5730 5727 5725 5723 5721 5719 5718 5716 5714 5713 5711 5709 5708 5707 5705 5703 5701 5699 5697 5695 5693 5691 5689 5686 5683 5681 5680 5678 5676 5675 5674 5673 5673 5673 5673 5674 5675 5675 5676 5678 5679 5680 5682 5683 5685 5688 5690 5691 5694 5697 5698 5700 5703 5706 5708 5712 5715 5718 5722 5725 5727 5730 5733 5737 5743 5748 5752 5754 5756 5758
5763 5760 5757 5755 5752 5749 5747 5744 5741 5739 5737 5734 5732 5730 5728 5726 5723 5721 5719 5718 5716 5715 5713 5712 5710 5708 5707 5706 5704 5703 5701 5699 5697 5695 5693 5691 5689 5687 5684 5681 5679 5677 5676 5674 5673 5672 5670 5670 5670 5670 5671 5672 5672 5673 5675 5676 5677 5678 5679 5681 5683 5685 5687 5689 5692 5693 5695 5698 5701 5704 5707 5711 5714 5717 5720 5722 5726 5729 5733 5739 5745 5747 5748 5751 5754
5758 5755 5752 5749 5747 5744 5742 5739 5737 5734 5732 5730 5728 5726 5724 5722 5720 5718 5716 5715 5713 5712 5710 5709 5708 5706 5705 5703 5702 5700 5699 5697 5695 5693 5691 5689 5687 5685 5683 5680 5677 5675 5674 5672 5670 5669 5668 5667 5667 5667 5668 5669 5669 5670 5671 5672 5673 5675 5676 5677 5679 5681 5683 5685 5687 5690 5692 5695 5697 5700 5704 5707 5710 5714 5717 5719 5722 5726 5730 5735 5738 5740 5743 5746 5749
5752 5749 5747 5744 5742 5740 5737 5735 5732 5730 5728 5726 5724 5722 5720 5718 5716 5715 5713 5712 5710 5709 5707 5706 5705 5704 5703 5702 5700 5698 5696 5695 5694 5691 5689 5687 5685 5683 5681 5679 5676 5674 5672 5670 5668 5667 5666 5665 5665 5665 5665 5666 5666 5667 5668 5669 5670 5671 5672 5674 5675 5677 5679 5682 5684 5687 5689 5692 5695 5697 5700 5704 5707 5710 5713 5716 5719 5722 5726 5729 5732 5736 5739 5741 5744
5747 5744 5742 5740 5737 5735 5733 5730 5728 5726 5724 5722 5720 5718 5717 5714 5713 5712 5710 5709 5707 5706 5705 5704 5703 5702 5701 5700 5699 5697 5695 5693 5692 5690 5688 5685 5684 5682 5680 5677 5675 5673 5671 5669 5667 5665 5664 5663 5663 5663 5663 5664 5664 5665 5665 5666 5667 5667 5669 5670 5672 5674 5676 5679 5681 5684 5687 5689 5692 5695 5699 5701 5704 5706 5709 5712 5715 5718 5721 5724 5729 5731 5733 5736 5739
5742 5739 5737 5735 5733 5730 5728 5725 5724 5721 5719 5717 5716 5715 5713 5711 5710 5709 5707 5706 5705 5704 5702 5701 5700 5700 5699 5698 5697 5695 5693 5691 5690 5688 5686 5684 5682 5680 5679 5676 5674 5672 5670 5668 5667 5665 5663 5662 5662 5661 5662 5662 5663 5663 5663 5664 5665 5665 5666 5667 5669 5671 5674 5676 5679 5682 5685 5687 5690 5694 5697 5699 5701 5703 5706 5708 5711 5714 5717 5720 5724 5726 5727 5730 5733
5737 5735 5733 5730 5728 5725 5723 5721 5719 5717 5715 5714 5713 5712 5710 5708 5707 5706 5705 5703 5702 5701 5700 5699 5698 5697 5696 5695 5694 5693 5691 5689 5687 5686 5684 5683 5681 5679 5677 5675 5673 5670 5669 5667 5666 5664 5663 5661 5660 5660 5660 5660 5661 5661 5662 5662 5663 5663 5664 5665 5666 5668 5670 5673 5676 5679 5683 5686 5689 5692 5694 5696 5698 5700 5703 5705 5707 5709 5712 5715 5718 5720 5722 5725 5728
5732 5730 5728 5725 5723 5721 5719 5716 5714 5713 5711 5710 5709 5708 5707 5705 5704 5703 5702 5700 5699 5698 5697 5696 5696 5694 5693 5692 5691 5690 5689 5687 5686 5684 5682 5681 5679 5678 5676 5674 5672 5670 5668 5666 5665 5663 5662 5660 5659 5659 5659 5659 5659 5659 5659 5660 5661 5661 5662 5663 5664 5665 5667 5670 5673 5676 5680 5682 5685 5687 5690 5693 5695 5697 5699 5701 5703 5705 5708 5711 5713 5715 5718 5720 5723
5727 5725 5723 5721 5719 5717 5714 5712 5710 5708 5707 5706 5705 5704 5702 5701 5701 5700 5699 5697 5696 5696 5694 5693 5693 5692 5691 5690 5689 5688 5687 5685 5684 5682 5681 5679 5678 5676 5674 5673 5671 5669 5667 5665 5664 5662 5661 5660 5658 5658 5657 5657 5657 5657 5657 5658 5658 5659 5660 5661 5663 5664 5665 5667 5669 5672 5675 5678 5680 5682 5684 5687 5690 5693 5695 5697 5699 5701 5703 5706 5708 5711 5713 5715 5718
5722 5720 5718 5716 5714 5712 5710 5707 5705 5704 5703 5702 5700 5699 5698 5697 5697 5696 5695 5694 5693 5693 5692 5691 5690 5689 5688 5687 5686 5685 5684 5683 5682 5681 5679 5677 5676 5675 5673 5672 5670 5668 5667 5665 5664 5662 5660 5659 5658 5657 5656 5656 5656 5656 5655 5656 5656 5656 5658 5659 5661 5662 5663 5665 5666 5669 5671 5673 5676 5677 5678 5680 5683 5687 5689 5692 5694 5697 5699 5702 5704 5707 5709 5711 5714
5717 5715 5713 5711 5709 5707 5705 5703 5701 5700 5699 5697 5696 5695 5694 5694 5693 5693 5692 5691 5691 5690 5689 5688 5687 5686 5685 5684 5683 5683 5682 5681 5680 5679 5677 5676 5674 5673 5672 5671 5669 5668 5666 5665 5664 5662 5660 5658 5657 5656 5655 5654 5654 5654 5654 5654 5654 5654 5655 5657 5658 5660 5661 5662 5664 5665 5667 5670 5672 5673 5673 5675 5678 5681 5683 5686 5689 5693 5695 5698 5700 5702 5704 5706 5709
5712 5710 5708 5706 5704 5702 5701 5699 5697 5696 5695 5694 5693 5691 5690 5690 5690 5689 5688 5688 5687 5687 5686 5685 5684 5683 5682 5682 5681 5680 5679 5678 5677 5676 5675 5674 5672 5671 5670 5669 5668 5666 5665 5664 5663 5662 5660 5658 5657 5655 5654 5653 5653 5652 5652 5652 5653 5653 5653 5654 5655 5656 5658 5659 5661 5662 5664 5666 5668 5669 5670 5672 5674 5677 5679 5682 5684 5687 5689 5693 5695 5697 5699 5701 5704
5708 5705 5703 5702 5700 5698 5696 5695 5693 5693 5692 5691 5690 5689 5687 5686 5686 5685 5685 5685 5684 5683 5683 5682 5681 5680 5679 5678 5678 5677 5676 5675 5674 5674 5673 5671 5670 5669 5668 5666 5666 5665 5664 5663 5662 5661 5660 5659 5657 5656 5654 5653 5652 5651 5651 5651 5651 5651 5651 5652 5653 5654 5655 5656 5657 5659 5661 5663 5665 5666 5668 5669 5671 5674 5676 5678 5680 5682 5684 5687 5690 5692 5694 5696 5698
5703 5701 5699 5697 5696 5694 5692 5691 5689 5689 5688 5687 5686 5685 5684 5682 5682 5681 5681 5681 5681 5680 5679 5678 5677 5677 5676 5675 5674 5674 5673 5672 5672 5671 5670 5669 5668 5667 5665 5664 5663 5663 5662 5661 5660 5660 5659 5658 5657 5656 5655 5653 5652 5650 5650 5650 5650 5650 5650 5650 5651 5652 5653 5653 5654 5656 5657 5658 5660 5662 5664 5666 5668 5670 5672 5674 5675 5677 5679 5682 5684 5686 5688 5690 5692
5698 5696 5695 5693 5691 5690 5688 5686 5685 5684 5684 5683 5682 5681 5680 5679 5678 5677 5677 5677 5677 5676 5675 5674 5674 5673 5672 5671 5671 5671 5670 5670 5669 5668 5667 5666 5665 5664 5663 5662 5661 5661 5660 5659 5658 5658 5658 5657 5656 5655 5654 5653 5652 5651 5650 5649 5649 5649 5649 5649 5649 5650 5650 5651 5652 5653 5653 5655 5657 5658 5660 5662 5663 5665 5667 5669 5671 5672 5674 5676 5678 5680 5682 5684 5686
5693 5691 5690 5688 5686 5685 5683 5682 5680 5679 5679 5678 5677 5676 5676 5676 5675 5674 5673 5673 5672 5672 5671 5671 5670 5669 5669 5668 5667 5667 5667 5666 5666 5665 5664 5663 5663 5662 5661 5660 5660 5659 5658 5658 5657 5656 5655 5655 5655 5654 5654 5653 5652 5651 5650 5649 5648 5648 5648 5649 5649 5649 5649 5649 5650 5651 5651 5653 5654 5655 5656 5657 5659 5660 5662 5664 5666 5667 5669 5670 5672 5674 5676 5678 5680
5688 5686 5685 5683 5682 5680 5679 5677 5675 5674 5674 5673 5673 5672 5672 5671 5671 5670 5670 5669 5668 5667 5667 5667 5666 5666 5665 5665 5664 5663 5663 5663 5662 5662 5661 5660 5660 5659 5658 5658 5657 5657 5656 5655 5655 5654 5653 5653 5653 5653 5652 5652 5651 5651 5650 5649 5648 5648 5648 5647 5648 5648 5648 5648 5649 5649 5649 5650 5651 5652 5653 5654 5655 5657 5659 5660 5661 5663 5664 5665 5667 5669 5670 5672 5674
5682 5681 5680 5679 5677 5676 5674 5672 5671 5669 5669 5669 5669 5668 5667 5667 5667 5667 5666 5665 5664 5664 5663 5663 5663 5663 5662 5662 5661 5660 5659 5659 5659 5658 5657 5657 5656 5656 5655 5655 5655 5654 5653 5653 5652 5652 5651 5651 5651 5651 5650 5650 5650 5650 5649 5649 5648 5647 5647 5647 5646 5646 5646 5646 5647 5647 5647 5648 5648 5649 5650 5651 5653 5654 5656 5656 5657 5658 5659 5661 5662 5664 5666 5667 5669
5677 5675 5675 5674 5673 5671 5670 5668 5667 5666 5665 5665 5665 5665 5664 5663 5664 5663 5663 5662 5661 5660 5660 5660 5659 5659 5658 5658 5657 5657 5656 5655 5655 5655 5654 5654 5653 5653 5653 5652 5652 5652 5651 5651 5650 5650 5649 5649 5649 5648 5648 5648 5648 5648 5648 5648 5647 5646 5646 5646 5645 5645 5645 5645 5645 5645 5646 5646 5646 5647 5647 5648 5650 5651 5652 5652 5653 5654 5655 5656 5658 5660 5661 5663 5664
5671 5670 5669 5669 5667 5666 5665 5664 5664 5663 5662 5661 5661 5661 5660 5660 5660 5660 5659 5659 5658 5658 5657 5656 5656 5655 5654 5654 5654 5653 5652 5652 5651 5651 5650 5650 5650 5649 5649 5649 5649 5649 5648 5648 5648 5647 5647 5646 5646 5646 5646 5646 5646 5646 5646 5646 5645 5645 5645 5644 5644 5644 5644 5644 5644 5644 5644 5645 5645 5645 5645 5646 5647 5648 5648 5649 5650 5651 5652 5652 5653 5655 5656 5658 5659
5666 5665 5664 5663 5662 5661 5661 5660 5660 5659 5658 5657 5657 5657 5657 5657 5657 5657 5656 5656 5655 5655 5654 5653 5652 5651 5650 5650 5649 5650 5649 5649 5648 5647 5647 5646 5646 5646 5645 5645 5645 5645 5645 5645 5644 5644 5644 5644 5644 5643 5643 5643 5643 5643 5643 5643 5643 5643 5642 5642 5642 5642 5641 5642 5642 5642 5642 5642 5643 5643 5643 5644 5644 5645 5645 5645 5646 5647 5648 5649 5650 5651 5652 5653 5654
5661 5660 5659 5658 5658 5657 5656 5656 5656 5655 5654 5654 5654 5654 5654 5654 5654 5653 5653 5652 5651 5651 5650 5649 5648 5648 5647 5646 5646 5646 5646 5646 5645 5644 5643 5643 5642 5642 5642 5641 5641 5642 5641 5641 5641 5641 5641 5640 5640 5640 5640 5640 5639 5640 5640 5640 5640 5640 5640 5640 5639 5639 5639 5639 5639 5639 5639 5640 5640 5640 5640 5641 5641 5641 5642 5642 5643 5644 5644 5645 5646 5647 5648 5648 5649
5656 5655 5654 5654 5653 5652 5652 5652 5651 5651 5650 5650 5650 5650 5650 5650 5650 5650 5649 5648 5648 5647 5646 5646 5645 5645 5644 5643 5643 5642 5642 5642 5641 5641 5640 5639 5639 5638 5638 5638 5638 5638 5638 5637 5637 5637 5637 5636 5636 5636 5636 5636 5636 5636 5636 5636 5637 5637 5637 5637 5637 5637 5636 5636 5636 5636 5636 5637 5637 5637 5638 5638 5638 5638 5638 5639 5640 5640 5641 5641 5642 5643 5644 5645 5645
5651 5650 5650 5649 5649 5648 5647 5647 5648 5647 5647 5647 5647 5647 5647 5646 5646 5646 5645 5645 5644 5643 5643 5642 5642 5641 5641 5640 5639 5639 5638 5638 5638 5637 5637 5636 5635 5635 5635 5634 5634 5634 5634 5633 5633 5633 5632 5632 5632 5631 5631 5631 5631 5631 5631 5631 5632 5632 5632 5633 5634 5634 5634 5634 5633 5633 5633 5633 5633 5634 5634 5634 5635 5634 5634 5635 5635 5636 5637 5637 5637 5638 5639 5640 5641
5646 5646 5646 5645 5645 5644 5644 5644 5644 5644 5644 5643 5643 5643 5643 5642 5642 5642 5641 5640 5640 5639 5639 5638 5638 5637 5637 5636 5635 5635 5634 5634 5633 5633 5632 5632 5632 5631 5631 5631 5630 5630 5630 5629 5629 5628 5628 5628 5627 5627 5627 5627 5626 5626 5626 5627 5627 5627 5627 5627 5628 5628 5629 5629 5630 5630 5630 5629 5629 5629 5629 5629 5630 5630 5631 5631 5632 5632 5632 5633 5633 5633 5634 5635 5636
5642 5642 5642 5642 5642 5641 5640 5640 5640 5640 5639 5639 5639 5639 5638 5638 5638 5637 5636 5636 5635 5635 5635 5634 5634 5633 5633 5632 5631 5630 5630 5629 5629 5628 5628 5627 5627 5627 5626 5626 5626 5625 5625 5624 5624 5624 5623 5623 5622 5622 5622 5622 5622 5621 5621 5621 5621 5621 5621 5622 5622 5622 5623 5623 5624 5624 5625 5625 5625 5625 5625 5625 5625 5625 5626 5626 5627 5627 5628 5628 5628 5628 5629 5629 5630
5639 5638 5638 5638 5638 5637 5637 5636 5636 5636 5635 5635 5634 5634 5633 5633 5632 5632 5632 5631 5631 5631 5630 5630 5629 5629 5628 5628 5627 5626 5625 5624 5624 5624 5623 5622 5622 5621 5621 5620 5620 5619 5619 5619 5618 5618 5618 5618 5617 5617 5616 5616 5616 5616 5616 5615 5615 5615 5615 5615 5616 5616 5617 5617 5617 5617 5618 5619 5620 5620 5621 5620 5620 5620 5620 5620 5621 5622 5622 5623 5623 5623 5624 5624 5624
5636 5635 5634 5634 5634 5633 5633 5632 5632 5631 5631 5630 5630 5629 5629 5628 5628 5628 5627 5627 5627 5626 5626 5625 5625 5624 5624 5623 5622 5621 5620 5620 5619 5618 5618 5617 5617 5616 5616 5615 5614 5613 5613 5612 5612 5611 5611 5611 5611 5610 5610 5610 5610 5610 5609 5609 5609 5608 5608 5608 5608 5609 5609 5610 5610 5611 5611 5612 5612 5613 5614 5615 5615 5615 5615 5615 5615 5615 5616 5616 5617 5617 5618 5619 5619
5632 5631 5631 5630 5630 5629 5629 5628 5628 5627 5627 5626 5625 5625 5624 5623 5623 5623 5623 5623 5622 5622 5621 5621 5620 5619 5619 5618 5617 5616 5615 5614 5613 5613 5612 5611 5611 5610 5610 5609 5609 5608 5607 5606 5605 5604 5604 5603 5603 5603 5603 5602 5602 5602 5602 5602 5602 5602 5602 5602 5601 5601 5601 5602 5602 5603 5604 5604 5605 5605 5606 5607 5608 5609 5609 5609 5609 5609 5609 5609 5610 5611 5612 5612 5613
5628 5627 5627 5626 5626 5626 5625 5625 5624 5624 5623 5622 5621 5620 5620 5620 5619 5619 5618 5618 5617 5617 5616 5616 5615 5614 5613 5613 5612 5611 5610 5609 5608 5607 5606 5605 5604 5603 5603 5602 5602 5601 5600 5600 5599 5598 5597 5597 5596 5596 5595 5595 5595 5595 5595 5595 5595 5595 5595 5595 5595 5595 5594 5594 5594 5595 5595 5596 5596 5597 5598 5598 5599 5600 5601 5602 5602 5603 5603 5603 5603 5604 5604 5605 5606
5624 5623 5623 5622 5622 5622 5621 5620 5620 5619 5619 5618 5617 5616 5616 5615 5615 5614 5614 5613 5612 5612 5611 5610 5609 5608 5608 5607 5606 5605 5604 5603 5602 5601 5600 5599 5598 5597 5597 5596 5595 5594 5594 5593 5592 5592 5591 5590 5590 5589 5589 5589 5589 5588 5588 5588 5588 5588 5588 5588 5588 5588 5588 5588 5588 5587 5587 5588 5588 5589 5589 5590 5590 5591 5592 5593 5594 5595 5596 5596 5597 5597 5597 5598 5598